Location: Wayah Bald
(35.1806°N, 83.5603°W)
Time: 02:17:40
(UTC-04:00)

Daily predictions for brighter satellites

Satellite Brightness Start Highest point End
(mag) Time Altitude Azimuth Time Altitude Azimuth Time Altitude Azimuth
Cosmos 1833 Rocket 3.2 00:18:18 10° NNW 00:22:38 55° NNW 00:22:38 55° NNW
Meteor 1-11 Rocket 4.4 00:27:54 51° NNE 00:27:54 51° NNE 00:32:14 10° NNE
Cosmos 2082 Rocket 3.3 00:33:16 10° NW 00:37:16 38° WNW 00:37:16 38° WNW
USA 229 DEB 3.8 00:33:13 10° NNW 00:39:43 73° WNW 00:39:43 73° WNW
USA 229 3.8 00:33:19 10° NNW 00:39:49 73° WNW 00:39:49 73° WNW
H-2A R/B 4.2 00:46:19 19° W 00:46:19 19° W 00:49:24 10° NW
Iridium 4 Rocket 4.4 00:42:09 10° N 00:46:34 53° N 00:46:34 53° N
Terra 4.5 01:00:11 12° WNW 01:00:11 12° WNW 01:00:55 10° WNW
Lacrosse 5 3.9 01:14:34 24° NNE 01:14:34 24° NNE 01:16:34 10° NE
Cosmos 2369 Rocket 3.3 01:28:04 40° N 01:28:04 40° N 01:31:39 10° NNE
NOSS 3-1 (C) 4.0 01:23:07 10° NNW 01:30:26 81° N 01:30:26 81° N
CZ-2C R/B 4.0 01:45:08 10° N 01:48:08 36° N 01:48:08 36° N
Cosmos 1943 Rocket 3.3 02:15:17 40° N 02:15:17 40° N 02:18:55 10° NNE
SeaSat 1 3.9 02:30:22 35° N 02:30:22 35° N 02:33:27 10° NNW
Cosmos 2098 Rocket 4.3 02:37:31 69° NNE 02:37:31 69° NNE 02:44:00 10° N
NOSS 3-3 (A) 4.2 02:47:44 66° NE 02:47:44 66° NE 02:53:19 10° NNE
NOSS 3-3 (C) 4.2 02:47:50 65° NE 02:47:50 65° NE 02:53:25 10° NNE
Lacrosse 5 4.4 02:53:43 12° NW 02:55:20 14° NNW 02:57:57 10° N
ATLAS 2AS CENTAUR R/B 2.9 03:03:37 10° NW 03:11:23 73° WSW 03:11:23 73° WSW
CZ-3B DEB 4.2 02:48:13 10° NW 03:16:34 60° WSW 03:19:53 50° SSW
Cosmos 2346 Rocket 4.5 03:13:23 10° N 03:19:40 75° E 03:19:49 75° E
Cosmos 2219 4.0 03:14:09 10° NNW 03:17:55 43° NW 03:17:55 43° NW
CZ-2D R/B 4.0 03:16:55 10° NE 03:20:51 20° E 03:22:04 19° ESE
Cosmos 2233 Rocket 4.1 03:23:43 63° NW 03:23:43 63° NW 03:29:16 10° N
CBERS-1 4.4 03:18:59 10° NNE 03:23:18 60° NE 03:23:18 60° NE
Cosmos 2227 Rocket 3.6 03:21:44 10° N 03:26:52 34° ENE 03:30:44 16° ESE
AQUA 4.4 03:30:06 10° NNE 03:33:51 56° N 03:33:51 56° N
Cosmos 972 Rocket 4.2 03:32:10 10° N 03:37:04 63° ENE 03:37:04 63° ENE
Cosmos 2278 3.6 03:38:18 79° E 03:38:18 79° E 03:43:49 10° NNE
Cosmos 2369 3.7 03:38:38 70° ESE 03:38:38 70° ESE 03:44:13 10° NNE
Cosmos 2297 Rocket 3.6 03:43:37 10° N 03:48:48 36° ENE 03:53:57 10° SE
Cosmos 405 Rocket 3.9 03:47:12 10° N 03:50:35 44° NE 03:50:35 44° NE
Cosmos 1072 Rocket 4.4 03:52:55 68° SW 03:53:42 77° W 04:00:09 10° N
Cosmos 468 Rocket 4.0 03:54:33 72° ESE 03:54:41 73° ESE 03:59:50 10° NNE
SL-08 R/B 4.2 03:57:30 38° NW 03:57:30 38° NW 04:00:37 10° NNW
UNKNOWN OBJECT B 4.5 03:58:19 10° NE 04:01:36 25° E 04:01:57 25° ESE
NPP 4.3 03:57:46 10° N 04:02:39 39° WNW 04:02:39 39° WNW
Cosmos 1891 Rocket 4.3 04:02:57 61° S 04:04:08 90° ENE 04:10:14 10° N
NOSS 2-1 (D) 3.8 04:05:09 57° NNE 04:05:09 57° NNE 04:08:38 10° NNE
NOSS 2-1 (C) 3.8 04:06:27 59° N 04:06:27 59° N 04:09:59 10° NNE
ATLAS CENTAUR R/B 1.8 04:09:11 70° SSE 04:09:31 73° ESE 04:14:33 10° NNE
Resurs 1-4 Rocket 2.4 04:05:43 10° NNE 04:10:56 62° E 04:12:18 46° SSE
SL-16 R/B 2.8 04:07:20 21° SSE 04:11:34 67° ENE 04:17:41 10° N
USA 161 4.1 04:15:50 17° NNW 04:15:50 17° NNW 04:16:39 10° N
SL-24 R/B 4.5 04:12:23 45° SSE 04:13:58 77° ENE 04:18:40 10° N
CZ-3 R/B 4.4 04:01:27 31° SSW 04:16:10 45° SSE 04:26:44 10° E
Cosmos 2034 Rocket 3.9 04:14:41 52° SSW 04:16:15 75° W 04:22:28 10° N
Cosmos 1898 Rocket 3.6 04:11:06 10° NNW 04:16:28 79° ENE 04:18:52 34° SSE
Cosmos 44 4.1 04:13:36 10° NW 04:17:03 38° WNW 04:17:03 38° WNW
Okean O Rocket 3.6 04:16:39 10° NE 04:20:13 24° E 04:22:43 15° SE
NOSS 2-1 (E) 3.7 04:21:03 56° NW 04:21:03 56° NW 04:25:06 10° NNE
Cosmos 972 4.3 04:17:30 10° NNW 04:22:23 86° ENE 04:24:12 40° SSE
ADEOS 4.0 04:18:08 10° N 04:23:06 44° WNW 04:23:34 43° W
ERS-2 3.9 04:23:54 10° NNW 04:26:03 23° NW 04:26:03 23° NW
Cosmos 841 Rocket 3.8 04:26:34 37° SSE 04:28:30 61° ESE 04:33:41 10° NNE
Milstar 3 Cent rocket 2.7 04:28:17 41° S 04:29:03 43° SSE 04:36:32 10° E
Cosmos 1707 3.2 04:27:24 10° NNW 04:30:34 47° NW 04:30:34 47° NW
Cosmos 1076 Rocket 4.3 04:27:05 10° N 04:31:19 50° E 04:33:52 22° SSE
Cosmos 220 Rocket 3.8 04:27:16 10° NNW 04:31:35 71° WSW 04:31:42 70° WSW
Cosmos 1937 Rocket 3.5 04:27:26 10° NNW 04:32:38 78° ENE 04:36:55 15° SSE
NOSS 3-4 (A) 4.4 04:27:18 10° NNW 04:34:15 60° NE 04:41:35 10° SE
NOSS 3-4 (C) 4.4 04:27:24 10° NNW 04:34:23 59° NE 04:41:45 10° SE
Nadezhda 4 Rocket 3.9 04:29:52 10° N 04:36:05 88° E 04:40:34 20° S
SME Rocket 3.8 04:34:56 38° S 04:37:00 68° W 04:44:16 10° NNW
Cosmos 1763 Rocket 3.4 04:35:24 42° S 04:37:12 85° ESE 04:42:26 10° NNE
UNK 3.6 04:36:37 42° S 04:38:09 77° WSW 04:42:51 10° NNW
ARIANE 5 R/B 2.8 04:34:13 10° N 04:39:09 51° WNW 04:40:22 42° WSW
GPS 2-04 Rocket1 2.4 04:40:11 75° SW 04:40:25 80° SSE 04:44:13 10° E
MTI 4.5 04:40:47 35° SE 04:41:51 53° ENE 04:45:04 10° N
Cosmos 1656 3.8 04:42:41 39° SW 04:44:35 59° WNW 04:50:12 10° NNE
OAO 1 4.4 04:44:22 32° W 04:46:59 90° S 04:52:29 10° E
BREEZE-M DEB (TANK) 3.7 04:42:19 10° WNW 04:45:41 27° WNW 04:45:41 27° WNW
Delta 7925 Rocket 4.4 04:49:46 28° S 04:49:46 28° S 04:53:42 10° SE
Cosmos 1408 Rocket 3.6 04:45:23 10° N 04:49:47 82° E 04:52:38 22° S
Cosmos 1766 Rocket 3.7 04:46:01 10° N 04:50:26 75° E 04:53:43 18° SSE
Cosmos-2242 3.2 04:49:21 28° S 04:51:33 69° E 04:55:51 10° NNE
Meteor 2-5 Rocket 4.4 04:46:24 10° NNW 04:51:43 36° W 04:53:09 32° WSW
ASTRO E2 2.9 04:52:59 46° SSW 04:53:12 47° S 04:57:07 10° ESE
CZ-4B R/B 4.2 04:52:19 10° NNE 04:55:57 34° E 04:58:57 13° SSE
Cosmos 1697 Rocket 2.8 04:55:03 33° SW 04:57:35 62° WNW 05:03:12 10° NNE
Cosmos 2082 4.1 04:52:58 10° NW 04:58:10 39° WSW 05:00:19 28° SSW
CZ-2C R/B 4.4 04:54:48 10° SSE 04:59:25 57° ENE 05:04:00 10° N
CZ-2D R/B 2.6 04:55:55 10° N 05:01:05 44° WNW 05:03:24 28° WSW
IRS-1D 4.3 04:56:43 10° N 05:01:06 33° WNW 05:02:36 27° WSW
In-Cosmos 22 4.3 04:58:54 10° N 05:04:11 71° E 05:09:27 10° SSE
Cosmos 1980 Rocket 2.1 05:01:10 25° SSW 05:04:36 89° ESE 05:10:17 10° NNE
BREEZE-M DEB 4.3 05:03:04 15° NW 05:05:02 64° NE 05:08:32 10° ESE
Cosmos 1634 Rocket 3.9 05:00:38 18° S 05:05:24 82° W 05:11:43 10° N
Cosmos 2026 Rocket 4.5 05:01:12 10° N 05:07:30 62° E 05:13:40 10° SSE
Cosmos 1842 Rocket 4.4 05:03:53 10° SSE 05:08:12 50° E 05:12:32 10° NNE
DELTA 2 R/B (2) 4.2 05:08:56 40° NNW 05:09:02 41° NNW 05:10:49 10° ENE
Cosmos 2227 Rocket 3.0 05:05:58 10° NW 05:10:45 29° WSW 05:12:25 24° SW
PSLV R/B 3.6 05:07:22 10° N 05:11:15 82° W 05:13:21 25° SSW
Cosmos 540 Rocket 4.0 05:08:44 13° S 05:13:19 58° ESE 05:18:24 10° NNE
Cosmos 2322 Rocket 3.4 05:09:22 10° S 05:14:32 39° ESE 05:19:42 10° NE
Cosmos 1470 4.1 05:11:35 10° SSE 05:15:15 40° E 05:18:58 10° NNE
Cosmos 1544 3.3 05:14:46 15° S 05:17:42 70° E 05:21:22 10° NNE
Cosmos 2195 Rocket 4.5 05:11:56 10° N 05:18:06 87° E 05:24:11 10° S
Cosmos 1674 4.5 05:15:41 10° NNE 05:19:07 32° E 05:22:31 10° SE
MOZ.5/SAFIR/RUBIN 5/SL-8 3.8 05:16:19 10° SSE 05:21:03 86° E 05:25:46 10° N
USA 81 4.0 05:15:59 10° S 05:21:16 90° ENE 05:26:34 10° N
IRS-1C Rocket 4.1 05:16:45 10° N 05:21:57 64° WNW 05:26:04 16° SSW
Cosmos 1092 Rocket 4.2 05:17:00 10° NNW 05:23:03 52° W 05:29:08 10° SSW
ADEOS II 3.6 05:20:53 10° NNE 05:25:41 35° E 05:30:28 10° SSE
Cosmos 1627 Rocket 4.5 05:20:41 10° N 05:27:00 80° W 05:33:13 10° S
GEOS 3 Rocket 4.3 05:24:28 10° S 05:29:00 30° WSW 05:33:34 10° NW
Cosmos 1758 4.0 05:29:52 20° SW 05:32:05 36° W 05:35:50 10° NNW
Cosmos 2297 Rocket 3.1 05:27:59 10° NW 05:32:36 26° WSW 05:37:13 10° SSW
UNKNOWN OBJECT B 4.5 05:33:14 10° NNW 05:35:56 18° WNW 05:37:27 15° W
Cosmos 2360 4.3 05:33:15 14° SSW 05:38:13 69° WNW 05:43:55 10° NNE
Cosmos 332 Rocket 3.7 05:33:48 11° SSW 05:38:29 86° WNW 05:43:19 10° NNE
Cosmos 1953 3.3 05:36:41 18° SW 05:38:54 29° WNW 05:42:29 10° NNW
SL-16 R/B 2.5 05:39:58 10° S 05:45:35 70° ESE 05:51:14 10° NNE
ISS -2.0 05:43:48 10° NW 05:46:56 43° NE 05:50:03 10° ESE
ATLAS CENTAUR R/B 3.9 05:46:11 10° W 05:49:09 15° NW 05:52:07 10° N
Resurs 1-4 Rocket 3.9 05:47:25 10° NNW 05:50:12 15° WNW 05:52:58 10° W
Cosmos 1428 Rocket 4.5 05:48:16 10° N 05:54:26 85° W 06:00:32 10° S
SL-16 R/B 4.0 05:52:25 11° SW 05:55:36 16° W 05:59:11 10° WNW
Okean O Rocket 2.8 05:52:53 10° NNW 05:56:29 25° WNW 06:00:05 10° SW
USA 116 3.7 05:54:30 10° SSE 05:57:33 63° ENE 06:00:46 10° N
Cosmos 1461 4.2 05:55:09 10° NNW 05:59:06 44° ENE 06:02:52 10° SE
Cosmos 1500 Rocket 3.8 05:55:20 10° NNW 05:59:35 49° W 06:03:47 10° SSW
Cosmos 371 Rocket 3.3 05:54:56 10° SSW 05:59:45 79° WNW 06:04:35 10° NNE
Cosmos 2279 Rocket 4.3 05:57:15 10° SSW 06:03:15 47° W 06:09:17 10° N
Cosmos 1743 Rocket 4.4 05:59:47 10° NNW 06:03:31 29° W 06:07:15 10° SSW
Aureole 1 Rocket 4.0 05:58:17 10° SSW 06:03:34 64° WNW 06:10:34 10° NNE
Cosmos 1125 Rocket 3.7 05:59:33 10° NNW 06:04:33 48° WSW 06:09:30 10° S
Aurora 2 Rocket 3.9 06:04:26 10° SW 06:06:21 15° S 06:08:26 10° SE
Cosmos 372 Rocket 3.9 06:01:25 10° NNW 06:06:32 83° WSW 06:11:36 10° SSE
CZ-4B R/B 4.0 06:01:39 10° N 06:06:36 34° WNW 06:11:27 10° SW
Cosmos 2263 Rocket 4.1 06:05:32 10° N 06:10:39 36° ENE 06:15:44 10° SE
RESURS DK-1 2.7 06:06:37 10° NNW 06:10:45 74° ENE 06:14:51 10° SSE
Meteor 1-16 Rocket 4.5 06:05:44 10° S 06:11:38 85° E 06:17:36 10° N
Cosmos 1733 3.7 06:10:23 10° SSW 06:13:57 39° W 06:17:33 10° N
Cosmos 2151 3.0 06:10:46 10° N 06:15:05 74° W 06:19:21 10° S
Cosmos 2227 4.5 06:10:44 10° NNW 06:16:15 49° WSW 06:21:44 10° S
